Location: Bogis-Bossey
(46.3500°N, 6.1667°E)
Time: 18:19:42
(UTC+00:00)

USA 234 - Pass Details

Date: 17 August 2022
Orbit: 1101 x 1106 km, 123.0° (Epoch: 25 September)

Event Time Altitude Azimuth Distance (km) Brightness Sun altitude
Rises 22:21:46 0° 52° (NE) 3,926 6.4 -28.0°
Reaches altitude 10° 22:24:16 10° 55° (NE) 2,966 5.7 -28.1°
Maximum altitude 22:30:49 72° 139° (SE) 1,154 3.1 -28.5°
Enters shadow 22:31:03 72° 156° (SSE) 1,158 3.1 -28.5°
